[[{"header":{"parameterUnit":"m.s-1","parameterCategory":1,"la1":30.2991,"la2":30.254,"lo1":-89.0895,"lo2":-89.0444,"dy":0.0017,"dx":0.0017,"nx":28,"ny":28,"refTime":"2025-06-07T21:00:00:Z","depth":0,"parameterNumber":2,"parameterNumberName":"U-component_of_WINDS"},"data":[0,0,0,0,0,0,0,0,0,0,0,0,0,0,0,0,0,0,0,0,0,0,0,0,0,0,0,0,0,0,0,0,0,0,0,0,0,0,0,0,0,0,0,0,0,0,0,0,0,0,0,0,0,0,0,0,0,0,4.2449,4.245,0,4.2553,4.2554,4.2555,4.2545,4.2543,4.2542,4.254,4.2648,4.2652,4.2656,0,0,0,0,0,0,0,0,0,0,0,0,0,4.2241,4.2245,4.2449,4.245,4.2451,4.2553,4.2554,4.2555,4.2545,4.2543,4.2541,4.2539,4.2646,4.2651,4.2657,0,0,0,0,0,0,0,0,0,0,0,0,0,4.2337,4.2246,4.2448,4.2458,4.246,4.2552,4.2554,4.2556,4.2546,4.2543,4.2541,4.2538,4.2645,4.2651,4.2657,4.2747,0,0,4.2677,4.268,0,0,0,0,0,0,0,0,4.2331,4.2344,4.2456,4.2458,4.246,4.2533,4.252,4.262,4.2546,4.2513,4.254,4.2537,4.2612,4.2621,4.2646,4.2752,4.2756,4.2678,4.2682,4.2685,4.2687,0,0,0,0,0,0,0,4.2325,4.234,4.249,4.2457,4.246,4.2458,4.2468,4.2539,4.2575,4.2516,4.2515,4.2528,4.2612,4.2639,4.2648,4.2758,4.2678,4.2684,4.2688,4.269,4.294,4.2943,0,0,0,0,0,0,4.2316,4.2334,4.2487,4.2493,4.2388,4.2463,4.2475,4.2512,4.2574,4.2581,4.253,4.2527,4.2629,4.264,4.2652,4.2758,4.2685,4.2691,4.2695,4.2937,4.2941,4.2944,0,0,0,0,0,0,4.2311,4.2329,4.2482,4.2414,4.2433,4.2469,4.2511,4.2516,4.2542,4.2585,4.2591,4.2551,4.2628,4.2643,4.2723,4.2762,4.2694,4.27,4.2934,4.2938,4.2942,4.2974,0,0,0,0,0,0,4.2305,4.2328,4.2362,4.2414,4.2437,4.2551,4.2513,4.2519,4.2554,4.2551,4.2606,4.2613,4.2627,4.2713,4.2729,4.277,4.2705,4.2931,4.2936,4.2941,4.2969,4.2978,4.2986,0,0,0,0,0,4.2298,4.2368,4.2364,4.2382,4.248,4.2554,4.2566,4.2581,4.2557,4.2591,4.2618,4.2611,4.2756,4.2721,4.2739,4.2783,4.2928,4.2935,4.294,4.2965,4.2976,4.2986,0,0,0,0,0,0,4.2319,4.2375,4.2371,4.246,4.2502,4.2552,4.2596,4.2593,4.2643,4.2639,4.2656,4.2668,4.2748,4.2774,4.2734,4.2871,4.2839,4.2849,4.2851,4.2862,4.287,4.2862,4.271,0,0,0,0,0,4.2334,4.2389,4.2435,4.2508,4.253,4.2559,4.2592,4.26,4.2644,4.2662,4.2695,4.2739,4.2794,4.283,4.2883,4.2973,4.2984,4.3012,4.3021,4.3027,4.3035,4.3083,4.3095,4.2964,4.2963,4.2963,0,0,4.2366,4.2403,4.2437,4.2514,4.2547,4.2603,4.2574,4.2635,4.2677,4.2672,4.2748,4.2774,4.2824,4.2909,4.2948,4.2933,4.3074,4.3035,4.304,4.3044,4.309,4.3103,4.3114,4.2968,4.2967,4.2966,0,0,4.2451,4.2486,4.255,4.2584,4.2635,4.2654,4.2669,4.272,4.2736,4.2813,4.281,4.286,4.2955,4.299,4.3021,4.3119,4.3113,4.3136,4.3179,4.3225,4.3236,4.3245,4.3278,4.329,4.3144,4.3144,4.3144,0,4.2484,4.2568,4.2583,4.2644,4.2678,4.2675,4.2739,4.2772,4.2838,4.2861,4.2843,4.2961,4.2995,4.3087,4.3111,4.3136,4.3153,4.3129,4.3233,4.3242,4.3251,4.3283,4.3295,4.3146,4.3146,4.3146,4.3145,0,4.2605,4.2663,4.2709,4.2772,4.2811,4.2873,4.2897,4.2935,4.2939,4.296,4.3038,4.3078,4.3139,4.3162,4.3167,4.3254,4.3243,4.3229,4.3196,4.3266,4.3296,4.3308,4.3149,4.3149,4.3148,4.3147,0,0,4.2706,4.2776,4.2792,4.282,4.2876,4.2921,4.2983,4.3042,4.3073,4.3119,4.317,4.3251,4.3237,4.3272,4.3281,4.3323,4.3395,4.3303,4.3305,4.3317,4.3491,4.35,4.3514,4.3392,4.3395,4.3397,4.3486,0,4.2795,4.2905,4.292,4.3016,4.307,4.3068,4.3122,4.3162,4.3183,4.3231,4.3255,4.331,4.329,4.3311,4.3351,4.3377,4.343,4.3372,4.3439,4.3442,4.3425,4.353,4.3539,4.3622,4.3498,4.35,4.3502,0,4.2914,4.2962,4.3064,4.3111,4.3134,4.3182,4.3236,4.3283,4.3328,4.334,4.3378,4.3382,4.3446,4.3412,4.3499,4.3459,4.3488,4.3505,4.3509,4.3514,4.3474,4.3536,4.3649,4.366,4.3521,4.3519,4.3518,0,4.2975,4.3065,4.3137,4.3161,4.3219,4.3252,4.3278,4.332,4.3354,4.3402,4.3424,4.3478,4.3508,4.355,4.3569,4.3542,4.3655,4.3622,4.3666,4.3665,4.3688,4.3686,4.3805,4.371,4.371,4.371,4.3709,0,4.3072,4.3133,4.3165,4.3209,4.3278,4.3294,4.3362,4.3387,4.3424,4.3473,4.3476,4.3521,4.3544,4.3593,4.3608,4.3677,4.3691,4.3702,4.3705,4.3701,4.3699,4.3718,4.3712,4.3713,4.3712,4.3711,4.3711,0,4.315,4.3174,4.3252,4.33,4.3313,4.3362,4.3402,4.3445,4.3466,4.3527,4.3542,4.3575,4.3632,4.3655,4.3726,4.3736,4.3815,4.3815,4.3799,4.38,4.3841,4.3836,4.3975,4.3993,4.3888,4.3889,4.389,0,4.321,4.3257,4.3309,4.3342,4.3368,4.3421,4.3455,4.3473,4.3509,4.3563,4.3598,4.3656,4.3702,4.3794,4.3824,4.3878,4.3878,4.3923,4.3886,4.3879,4.3876,4.3871,4.3875,4.3929,4.393,4.3931,4.3931,0,4.3311,4.332,4.3369,4.3422,4.3463,4.3505,4.3547,4.3573,4.3598,4.3638,4.3696,4.3732,4.3804,4.386,4.3915,4.3942,4.394,4.3943,4.3955,4.395,4.3938,4.3943,4.3816,4.3939,4.3939,4.3938,4.3938,4.3937,4.3381,4.3422,4.3465,4.3519,4.3552,4.359,4.3632,4.3658,4.3706,4.3765,4.3774,4.3836,4.3879,4.3953,4.3982,4.403,4.4018,4.4037,4.4041,4.4045,4.4046,4.3933,4.4041,4.404,4.404,4.404,4.404,0,4.3481,4.3508,4.3558,4.3615,4.3657,4.3653,4.3698,4.3734,4.3788,4.3828,4.3874,4.394,4.3994,4.4029,4.4083,4.4116,4.4116,4.4129,4.4126,4.4131,4.4055,4.4038,4.4127,4.4127,4.4127,4.4127,4.4127,4.4127,4.3537,4.3606,4.362,4.3705,4.3732,4.3792,4.3818,4.3854,4.3885,4.3959,4.4004,4.4026,4.4063,4.4121,4.417,4.4179,4.4198,4.4211,4.4219,4.4146,4.4137,4.4128,4.4112,4.4216,4.4216,4.4291,4.4291,4.4292]},{"header":{"parameterUnit":"m.s-1","parameterCategory":1,"la1":30.2991,"la2":30.254,"lo1":-89.0895,"lo2":-89.0444,"dy":0.0017,"dx":0.0017,"nx":28,"ny":28,"refTime":"2025-06-07T21:00:00:Z","depth":0,"parameterNumber":3,"parameterNumberName":"V-component_of_WINDS"},"data":[0,0,0,0,0,0,0,0,0,0,0,0,0,0,0,0,0,0,0,0,0,0,0,0,0,0,0,0,0,0,0,0,0,0,0,0,0,0,0,0,0,0,0,0,0,0,0,0,0,0,0,0,0,0,0,0,0,0,1.3565,1.3566,0,1.3653,1.3654,1.3655,1.3677,1.3676,1.3676,1.3675,1.3765,1.3768,1.3771,0,0,0,0,0,0,0,0,0,0,0,0,0,1.3418,1.342,1.3565,1.3566,1.3567,1.3653,1.3654,1.3655,1.3677,1.3676,1.3676,1.3675,1.3764,1.3768,1.3771,0,0,0,0,0,0,0,0,0,0,0,0,0,1.3491,1.3421,1.3565,1.3589,1.3592,1.3652,1.3654,1.3655,1.3677,1.3676,1.3676,1.3675,1.3763,1.3767,1.3772,1.3815,0,0,1.3785,1.3787,0,0,0,0,0,0,0,0,1.3487,1.3497,1.3584,1.3587,1.3591,1.3653,1.3635,1.3709,1.3677,1.3645,1.3675,1.3674,1.3729,1.3736,1.3754,1.3819,1.3823,1.3785,1.3788,1.379,1.3791,0,0,0,0,0,0,0,1.3482,1.3493,1.36,1.3585,1.3589,1.3595,1.3605,1.3649,1.369,1.3648,1.3649,1.3659,1.373,1.375,1.3756,1.3825,1.3785,1.3789,1.3792,1.3794,1.3931,1.3932,0,0,0,0,0,0,1.3473,1.3489,1.3597,1.3602,1.3536,1.3598,1.3609,1.3634,1.369,1.3698,1.366,1.366,1.3743,1.3751,1.376,1.3815,1.379,1.3794,1.3797,1.393,1.3931,1.3933,0,0,0,0,0,0,1.3469,1.3482,1.3593,1.3546,1.3561,1.3602,1.3629,1.3636,1.3656,1.3699,1.3707,1.3672,1.3742,1.3753,1.3801,1.3819,1.3796,1.38,1.3929,1.3931,1.3932,1.3926,0,0,0,0,0,0,1.3465,1.3481,1.3498,1.3546,1.3563,1.3634,1.3631,1.3638,1.3663,1.3664,1.3713,1.372,1.3743,1.3795,1.3806,1.3824,1.3803,1.3928,1.393,1.3932,1.3925,1.3927,1.3929,0,0,0,0,0,1.346,1.3492,1.3498,1.3511,1.3585,1.3635,1.3644,1.3669,1.3664,1.3682,1.371,1.3719,1.3815,1.38,1.3812,1.3832,1.3927,1.3929,1.3931,1.3924,1.3927,1.3929,0,0,0,0,0,0,1.3444,1.3499,1.3506,1.3555,1.359,1.3638,1.3661,1.3671,1.3708,1.3708,1.3737,1.3748,1.3795,1.3818,1.38,1.3878,1.3871,1.3876,1.3861,1.3864,1.3866,1.386,1.3807,0,0,0,0,0,1.3447,1.3482,1.3528,1.3567,1.3584,1.3619,1.3642,1.3658,1.3696,1.371,1.3742,1.3778,1.3817,1.3841,1.3879,1.3928,1.3939,1.3948,1.395,1.3951,1.3956,1.3984,1.3989,1.394,1.394,1.394,0,0,1.3452,1.3486,1.3507,1.3565,1.3594,1.363,1.3632,1.367,1.3698,1.3716,1.3764,1.3788,1.3831,1.3879,1.3903,1.39,1.3972,1.3954,1.3955,1.3959,1.3987,1.3992,1.3996,1.3942,1.3942,1.3941,0,0,1.348,1.3509,1.3545,1.3574,1.3618,1.3642,1.365,1.3697,1.3714,1.3762,1.3777,1.381,1.3875,1.3905,1.3929,1.3969,1.3979,1.398,1.3992,1.4019,1.4023,1.4027,1.4042,1.4047,1.3984,1.3984,1.3984,0,1.3481,1.3537,1.3563,1.3601,1.3626,1.3645,1.3682,1.3709,1.3762,1.378,1.3776,1.3859,1.3889,1.3946,1.3955,1.3974,1.3985,1.3975,1.402,1.4024,1.4028,1.4043,1.4049,1.3984,1.3984,1.3984,1.3984,0,1.3536,1.3575,1.3599,1.3651,1.3679,1.3716,1.3748,1.3773,1.3787,1.3811,1.386,1.3896,1.3942,1.3956,1.397,1.4015,1.4013,1.4014,1.4009,1.4032,1.4047,1.4053,1.3984,1.3984,1.3984,1.3984,0,0,1.3558,1.3624,1.3632,1.3656,1.3706,1.3736,1.3775,1.382,1.3841,1.3878,1.3911,1.3966,1.3968,1.3995,1.4012,1.4037,1.4067,1.4036,1.4037,1.4041,1.4121,1.412,1.4126,1.4074,1.4075,1.4076,1.4117,0,1.3593,1.3662,1.3687,1.3744,1.3781,1.3799,1.3833,1.3867,1.389,1.3925,1.395,1.3989,1.3989,1.4005,1.403,1.4058,1.4084,1.4056,1.4106,1.4108,1.4096,1.4133,1.4132,1.417,1.4123,1.4124,1.4125,0,1.3644,1.3681,1.3742,1.3788,1.3804,1.3834,1.3878,1.391,1.395,1.3965,1.3995,1.4011,1.4052,1.4043,1.4101,1.4081,1.4103,1.4121,1.4123,1.4129,1.4118,1.4142,1.4182,1.4188,1.4134,1.4133,1.4132,0,1.3654,1.372,1.3765,1.3785,1.384,1.386,1.3884,1.3923,1.3949,1.3987,1.4004,1.4046,1.4069,1.4102,1.4129,1.4119,1.4185,1.4177,1.4199,1.4199,1.4213,1.4212,1.4258,1.4225,1.4225,1.4225,1.4225,0,1.3692,1.3728,1.3771,1.3799,1.3841,1.3869,1.391,1.3935,1.3969,1.4003,1.4021,1.4052,1.4085,1.4121,1.4142,1.4187,1.4197,1.4211,1.4217,1.421,1.4209,1.4226,1.4224,1.4227,1.4226,1.4226,1.4226,0,1.3711,1.3741,1.3792,1.3839,1.3852,1.3881,1.3922,1.395,1.3974,1.4016,1.4028,1.4066,1.4109,1.4139,1.4194,1.4208,1.4257,1.4262,1.4244,1.4247,1.4268,1.4266,1.4328,1.4338,1.4297,1.4297,1.4297,0,1.3733,1.3762,1.3813,1.3837,1.3861,1.3899,1.3925,1.3954,1.398,1.4028,1.4051,1.4095,1.4132,1.4199,1.4232,1.4274,1.4281,1.43,1.4287,1.428,1.4282,1.4281,1.4284,1.4302,1.4302,1.4302,1.4302,0,1.377,1.3784,1.3821,1.3864,1.3895,1.393,1.3965,1.3983,1.4018,1.4048,1.4092,1.412,1.4177,1.4221,1.4266,1.4291,1.4303,1.4306,1.4314,1.4308,1.4297,1.4304,1.425,1.4305,1.4304,1.4304,1.4304,1.4304,1.3792,1.3819,1.386,1.3901,1.393,1.3963,1.3992,1.402,1.4057,1.4106,1.412,1.4166,1.4206,1.4268,1.4294,1.4331,1.433,1.434,1.4343,1.4345,1.4346,1.429,1.4339,1.4339,1.4339,1.4339,1.4339,0,1.3831,1.3858,1.3895,1.3945,1.3977,1.3985,1.4025,1.4052,1.4092,1.4128,1.4164,1.4215,1.4258,1.4294,1.4338,1.4361,1.4368,1.4372,1.4371,1.4377,1.4344,1.4333,1.4366,1.4366,1.4366,1.4366,1.4366,1.4366,1.3855,1.3901,1.392,1.3981,1.4008,1.4053,1.4075,1.4106,1.4135,1.4191,1.4227,1.425,1.4286,1.4334,1.4374,1.4383,1.4399,1.4402,1.4413,1.4382,1.4379,1.4376,1.4366,1.4405,1.4405,1.4443,1.4444,1.4444]}]]